Location: Sagn�
(15.2046°N, 12.7898°W)
Time: 13:46:00
(UTC+00:00)

Cosmos 1655 Rocket - Pass Details

Date: 08 May 2021
Orbit: 970 x 1007 km, 82.9° (Epoch: 14 June)

Event Time Altitude Azimuth Distance (km) Brightness Sun altitude
Rises 19:45:45 0° 0° (N) 3,655 7.3 -8.8°
Reaches altitude 10° 19:48:17 10° 3° (N) 2,707 6.6 -9.4°
Maximum altitude 19:54:26 67° 86° (E) 1,043 4.0 -10.8°
Drops below altitude 10° 20:00:36 10° 168° (SSE) 2,715 6.0 -12.1°
Sets 20:03:07 0° 171° (S) 3,666 6.7 -12.7°
